Dewpoint
-1 -2 -3 -2 -3 -5 -6 -6 -2 -5 -3 0 1 1 2 2 3 2 2 1 2 2 2 1 1 1 1 1 -0 -1 -3 -3 -4 -2 -1 -2 1 3 6 8 9 9 10 11
-0 -3 -4 -4 -0 0 1 2 -1 -1 2 0 1 1 2 2 2 1 1 0 0 0 0 0 0 -0 -0 -1 -1 -1 -2 -2 -2 -2 -2 -1 -0 2 4 8 9 10 10 11
-0 -4 -3 -0 0 1 2 2 3 2 2 -0 0 2 1 1 1 1 0 -0 -1 -1 -2 -1 -1 -2 -1 -1 -1 -1 -1 -1 -1 -1 -2 -1 -0 2 3 6 8 9 10 10
1 -1 -0 -1 -4 -1 1 -1 -0 0 -0 -0 0 1 1 0 0 -0 -0 -2 -3 -3 -3 -3 -3 -3 -2 -2 -2 -2 -2 -1 -1 -0 -1 -0 0 2 3 6 8 9 10 10
1 1 -2 -4 -4 -2 -1 -0 -2 -1 -1 -0 0 -0 1 -1 -2 -3 -4 -4 -4 -4 -4 -3 -3 -3 -3 -3 -4 -4 -3 -2 -1 0 0 0 1 3 4 5 7 7 9 10
1 1 1 -1 -3 -4 -4 1 -2 -1 -0 -0 -1 0 0 -2 -3 -4 -4 -4 -4 -5 -4 -4 -4 -4 -4 -4 -5 -4 -4 -3 -1 -0 0 1 1 3 4 4 5 7 8 10
-1 -1 0 -2 -2 -4 -3 -2 -2 -1 -2 -1 -0 -1 -2 -3 -4 -4 -5 -5 -5 -5 -5 -5 -5 -6 -5 -5 -5 -5 -4 -3 -2 -1 -1 0 1 1 3 3 4 6 7 7
-3 -6 -3 -1 -3 -2 -1 -2 -2 -2 -2 -2 -2 -3 -3 -4 -5 -5 -6 -6 -6 -6 -7 -7 -7 -6 -6 -6 -6 -6 -5 -4 -4 -3 -2 -0 0 1 2 2 4 5 5 6
0 0 -1 -1 -1 -2 -2 -2 -2 -3 -2 -3 -3 -4 -4 -5 -5 -6 -6 -7 -7 -8 -8 -8 -8 -8 -8 -8 -7 -6 -6 -6 -5 -4 -2 -1 0 1 1 1 2 3 3 5
-2 -1 -1 -2 -2 -3 -3 -2 -3 -4 -3 -5 -4 -5 -6 -6 -6 -7 -7 -8 -8 -8 -8 -9 -9 -9 -9 -9 -8 -8 -7 -7 -6 -5 -3 -3 -1 -1 -0 0 0 1 1 1
-2 -2 -2 -1 -3 -3 -4 -4 -4 -4 -4 -5 -6 -6 -6 -7 -8 -8 -8 -9 -9 -9 -10 -10 -10 -10 -10 -9 -8 -8 -8 -7 -7 -6 -5 -5 -4 -3 -3 -2 -1 -1 -0 1
-3 -2 -2 -2 -3 -5 -5 -4 -5 -5 -5 -5 -6 -7 -7 -8 -8 -9 -9 -9 -9 -9 -10 -10 -10 -10 -10 -10 -9 -9 -9 -8 -8 -7 -7 -6 -6 -5 -5 -4 -3 -2 -1 -1
-3 -4 -4 -5 -6 -6 -6 -6 -6 -6 -6 -7 -7 -8 -8 -8 -9 -9 -9 -9 -9 -9 -10 -10 -10 -10 -10 -10 -10 -9 -9 -9 -9 -8 -8 -8 -8 -8 -8 -7 -6 -5 -3 -2
-4 -7 -5 -7 -8 -7 -7 -7 -7 -8 -8 -8 -8 -8 -9 -9 -9 -9 -9 -9 -10 -10 -10 -10 -10 -10 -10 -10 -10 -10 -10 -10 -10 -10 -9 -9 -9 -9 -9 -10 -9 -9 -8 -6
-8 -7 -7 -8 -8 -8 -9 -9 -10 -10 -10 -10 -9 -9 -10 -10 -9 -10 -9 -9 -10 -10 -10 -10 -10 -10 -10 -10 -10 -10 -10 -10 -11 -11 -11 -10 -10 -10 -11 -11 -11 -11 -11 -11
-9 -9 -9 -9 -10 -10 -11 -11 -11 -12 -11 -11 -11 -10 -10 -10 -10 -10 -10 -10 -10 -10 -10 -10 -10 -10 -11 -11 -11 -11 -11 -11 -11 -11 -11 -11 -11 -11 -11 -11 -11 -12 -12 -12
-9 -10 -11 -11 -12 -12 -12 -12 -13 -13 -12 -12 -12 -11 -11 -10 -11 -10 -11 -10 -10 -10 -10 -10 -11 -11 -11 -11 -11 -11 -11 -11 -11 -12 -12 -12 -12 -12 -11 -11 -12 -12 -12 -12
-11 -11 -12 -13 -13 -14 -14 -14 -15 -14 -14 -13 -13 -11 -11 -11 -11 -11 -11 -11 -11 -10 -10 -11 -11 -11 -11 -11 -11 -11 -11 -11 -12 -12 -12 -12 -12 -12 -12 -12 -12 -12 -12 -11
-11 -12 -13 -13 -14 -14 -14 -14 -15 -15 -15 -14 -13 -12 -12 -12 -11 -11 -11 -11 -11 -11 -11 -11 -11 -11 -11 -11 -11 -11 -11 -11 -12 -12 -12 -12 -12 -12 -12 -12 -12 -12 -12 -11
-12 -12 -12 -13 -14 -15 -14 -14 -14 -15 -15 -14 -14 -13 -12 -11 -12 -12 -12 -12 -12 -12 -11 -11 -11 -11 -11 -11 -11 -11 -11 -11 -12 -12 -12 -12 -12 -12 -12 -12 -12 -12 -12 -12
-11 -11 -12 -14 -14 -13 -13 -13 -14 -15 -15 -14 -15 -13 -13 -12 -13 -13 -13 -13 -13 -12 -12 -12 -11 -12 -11 -11 -11 -11 -11 -11 -11 -12 -12 -12 -12 -12 -12 -12 -12 -12 -12 -12
-11 -11 -13 -13 -14 -13 -13 -14 -15 -14 -15 -14 -15 -14 -13 -13 -13 -13 -13 -14 -13 -13 -13 -12 -12 -12 -12 -12 -11 -11 -11 -12 -12 -12 -12 -12 -12 -12 -12 -13 -12 -12 -12 -12
-11 -12 -12 -12 -13 -14 -14 -14 -14 -13 -16 -13 -15 -15 -15 -13 -14 -14 -15 -15 -14 -14 -13 -13 -13 -13 -13 -12 -12 -12 -12 -12 -12 -12 -12 -13 -12 -12 -12 -12 -13 -13 -13 -16
-13 -12 -12 -13 -13 -14 -15 -15 -14 -14 -14 -14 -15 -15 -15 -15 -15 -15 -15 -15 -15 -14 -14 -14 -14 -13 -13 -13 -13 -13 -13 -13 -13 -13 -13 -13 -14 -17 -18 -18 -19 -20 -21 -23
-13 -13 -13 -12 -12 -14 -15 -15 -14 -15 -15 -14 -16 -16 -16 -15 -15 -15 -15 -15 -15 -15 -15 -14 -14 -14 -14 -14 -14 -14 -15 -16 -17 -18 -19 -20 -21 -22 -23 -23 -24 -26 -26 -27
-11 -12 -13 -13 -14 -15 -15 -16 -16 -16 -16 -15 -15 -16 -16 -16 -16 -15 -15 -16 -16 -16 -16 -15 -15 -15 -15 -15 -15 -15 -16 -17 -17 -18 -19 -20 -21 -23 -24 -24 -25 -25 -26 -27
-12 -12 -13 -14 -15 -15 -15 -16 -16 -16 -16 -15 -16 -16 -16 -16 -16 -16 -16 -16 -16 -16 -16 -16 -16 -16 -16 -16 -16 -16 -16 -17 -18 -19 -20 -21 -22 -23 -25 -26 -27 -27 -28 -28
Wind_Speed
9 13 13 12 11 11 11 6 4 12 2 4 5 9 11 11 13 28 26 22 23 21 16 18 18 17 18 20 23 25 27 26 24 23 22 23 22 20 19 23 22 23 32 31
5 11 9 8 13 14 11 14 10 8 9 11 12 8 11 16 23 23 18 19 21 19 21 23 24 26 27 26 28 29 29 28 26 26 25 23 24 23 21 20 24 22 26 39
4 5 6 3 13 9 4 12 8 10 7 11 13 10 15 15 15 15 16 17 17 20 22 22 23 25 26 28 28 28 29 29 28 26 27 26 25 23 23 18 24 25 29 42
4 5 2 4 13 6 10 14 16 14 14 13 13 7 17 18 18 18 19 22 23 21 20 21 23 25 28 29 29 29 28 30 29 28 27 28 26 24 23 20 20 28 31 30
2 2 0 9 13 10 8 4 15 14 16 18 22 3 13 18 16 16 18 19 21 21 24 27 29 30 31 30 29 28 29 29 28 27 28 28 27 25 23 20 19 28 30 33
2 3 1 1 15 23 5 2 18 20 16 15 16 4 4 18 16 15 18 22 25 25 24 27 31 33 33 32 30 29 29 29 28 26 26 28 28 25 25 20 20 20 28 41
3 2 0 8 21 16 4 5 21 19 17 14 5 7 11 16 19 20 22 24 26 24 25 25 29 31 31 31 30 28 28 28 28 27 26 24 26 25 25 23 19 22 24 32
2 4 4 14 8 5 5 10 15 17 14 15 11 13 15 16 20 22 25 27 26 26 25 26 26 27 28 28 29 28 26 25 25 25 24 22 23 24 25 21 20 21 27 34
2 1 4 3 4 7 10 7 10 11 11 13 13 14 16 20 23 23 24 26 26 28 27 26 25 25 26 28 27 27 27 25 24 23 22 20 20 22 23 20 20 23 26 35
2 2 3 6 3 10 9 11 8 8 9 14 13 17 19 19 23 25 26 26 26 29 27 27 25 24 23 25 22 21 22 22 22 21 20 18 18 19 19 19 19 22 27 31
2 2 3 6 8 7 8 10 7 8 9 11 14 14 17 18 22 22 20 20 19 22 22 21 20 20 23 27 25 23 23 22 21 20 19 18 18 21 19 18 17 21 27 30
3 0 3 3 7 5 4 6 6 9 9 10 12 14 15 15 17 18 17 18 18 20 21 23 22 24 25 27 24 23 23 22 21 19 17 17 16 15 16 16 14 17 23 28
2 3 2 5 7 5 5 6 6 8 10 10 12 15 12 15 16 19 15 18 20 21 20 21 20 21 23 27 23 21 22 22 20 18 15 12 10 10 10 11 6 7 17 22
2 3 3 5 6 4 5 7 10 9 10 12 13 13 12 11 14 18 17 18 22 21 19 20 20 20 22 26 23 21 21 19 18 16 13 10 8 6 7 12 17 18 11 11
6 6 8 4 2 6 9 11 11 12 14 14 13 14 14 14 14 17 16 16 20 19 19 21 21 22 21 24 22 21 20 18 16 13 10 8 8 13 18 24 27 26 27 28
6 2 1 3 5 7 10 12 13 15 15 17 15 14 14 15 14 15 14 16 21 21 21 20 21 22 22 21 20 18 17 14 12 9 9 11 13 16 19 22 24 26 27 27
3 1 3 4 7 8 11 13 14 15 16 16 17 15 14 15 15 12 14 16 16 15 17 19 20 20 20 19 18 16 14 13 10 8 9 11 13 16 18 18 20 19 18 14
3 2 4 5 7 10 12 14 15 16 17 17 16 14 13 15 17 15 14 15 16 12 13 15 17 18 18 18 17 14 13 12 10 9 9 10 12 14 16 18 17 18 20 19
2 3 4 7 9 10 12 12 15 17 15 15 16 14 14 12 12 13 13 12 16 16 15 13 14 15 15 15 15 14 12 11 10 10 9 10 12 14 15 17 19 20 21 21
2 5 6 9 10 9 9 11 16 16 16 13 14 10 11 9 10 13 12 15 16 17 13 9 10 11 13 13 12 11 9 9 9 10 10 11 13 14 15 15 16 18 20 22
4 6 8 9 10 10 9 10 15 15 14 14 16 13 11 11 11 13 12 15 17 16 9 6 7 10 11 11 10 9 8 7 7 7 8 9 10 12 13 14 15 17 20 21
6 8 8 7 11 10 9 10 11 9 12 11 15 13 10 9 12 14 16 16 15 10 7 6 7 8 9 9 8 7 6 6 6 6 7 8 9 10 12 14 15 17 18 18
7 8 6 6 8 10 11 10 9 8 11 10 13 15 14 10 12 14 16 15 12 9 6 5 6 6 7 7 6 6 5 5 5 6 7 7 8 9 11 12 13 15 16 15
5 6 3 4 6 9 11 9 6 9 10 6 12 13 14 13 11 11 10 11 11 8 7 8 7 7 7 6 6 5 4 4 4 4 5 5 6 6 7 9 10 11 12 12
2 3 5 6 6 9 10 7 6 8 7 7 10 11 12 10 11 12 12 10 9 10 9 6 6 6 6 5 5 5 4 3 3 2 3 3 4 5 7 8 9 10 11 12
4 4 5 4 8 9 8 9 8 10 5 5 8 10 11 12 11 10 11 12 11 9 9 9 9 6 5 5 5 5 5 5 4 3 3 4 4 4 6 8 9 10 11 12
5 2 5 7 10 8 7 9 6 7 6 6 9 11 12 11 10 9 10 11 11 8 6 7 7 7 6 5 4 4 4 4 3 3 4 4 5 6 7 8 8 9 10 11
Wind_Direction
268 275 273 276 282 301 308 285 224 274 331 50 35 56 18 328 25 31 34 31 42 48 29 23 14 1 356 350 348 347 343 335 327 320 317 312 302 307 287 268 273 269 256 242
274 270 275 322 13 344 24 353 357 58 58 353 7 78 78 15 14 28 22 14 20 18 7 2 352 347 344 342 342 341 333 328 322 316 309 309 304 301 305 270 264 268 260 243
261 272 299 98 5 354 57 30 353 38 350 346 1 37 35 32 20 13 9 6 14 15 2 353 347 341 340 342 337 329 326 325 321 317 309 311 308 297 307 283 260 265 253 252
290 311 60 351 26 333 345 48 12 352 345 352 348 26 43 26 14 4 7 6 11 13 3 354 342 337 340 339 334 329 326 324 322 321 313 312 308 300 302 292 273 263 252 257
289 314 139 18 353 333 342 31 8 350 348 348 338 233 45 23 16 9 8 355 356 353 345 335 332 334 335 334 332 329 325 325 325 322 318 316 315 305 295 300 278 278 256 258
306 250 100 62 320 325 211 208 356 349 351 353 7 29 16 7 14 2 352 345 341 336 332 329 331 330 328 329 330 329 327 323 324 321 317 318 317 302 297 297 282 274 258 227
339 16 139 343 326 328 33 308 335 347 1 6 5 352 349 354 350 345 345 342 337 339 338 329 323 324 329 331 330 329 325 320 318 319 314 315 312 305 300 302 285 271 266 228
6 38 342 2 356 44 307 323 345 353 7 2 1 4 359 348 343 342 341 342 344 347 346 343 338 334 332 331 329 327 324 320 318 316 315 315 311 303 299 306 297 269 265 235
261 48 299 343 4 355 349 329 354 356 4 1 356 1 357 348 342 342 344 346 347 352 347 348 347 345 340 335 330 328 327 324 320 321 320 319 314 301 303 306 294 274 254 227
25 77 112 70 46 13 10 347 0 0 359 353 358 350 353 345 343 346 350 353 348 349 350 348 347 344 342 334 334 332 330 328 330 328 325 328 323 314 307 299 289 270 249 228
274 47 195 17 21 7 11 5 21 5 1 4 358 353 353 346 345 344 346 346 343 345 347 345 343 344 349 350 345 341 340 339 340 340 336 337 333 326 320 300 283 270 250 235
224 174 279 296 349 358 16 15 4 353 353 356 355 350 347 345 344 342 347 348 346 346 346 349 352 353 354 354 352 349 346 348 348 348 345 341 337 333 326 312 297 276 255 241
179 239 10 18 64 37 37 35 6 350 347 343 344 343 340 335 336 344 350 356 353 350 348 350 354 355 357 356 356 353 353 354 354 352 350 347 345 349 6 14 344 285 260 244
285 276 133 62 63 26 2 348 329 331 334 338 337 339 339 337 329 343 345 346 352 350 351 355 358 358 356 357 358 1 2 3 3 2 0 4 12 37 61 77 85 93 119 176
102 121 137 156 273 329 329 330 338 347 345 345 347 344 342 336 334 334 335 341 347 352 0 3 4 5 357 358 1 4 8 11 13 21 32 52 88 103 106 105 100 100 103 108
152 139 302 332 353 335 336 344 348 346 340 336 335 336 337 339 333 336 338 337 344 355 1 5 7 4 2 3 4 8 14 17 23 47 79 94 104 113 118 114 113 113 114 118
204 20 19 8 358 346 344 340 339 335 331 333 335 335 334 330 335 330 351 357 351 348 356 4 6 5 7 9 9 13 18 26 37 61 81 94 103 109 114 118 117 115 113 126
87 55 357 350 346 341 340 340 340 337 333 330 327 323 323 329 336 332 330 341 347 342 350 0 1 2 6 13 16 21 31 44 54 69 84 96 105 113 116 117 118 118 121 131
42 356 344 342 344 341 341 348 352 347 339 333 330 333 335 330 338 339 333 337 343 346 356 357 354 0 8 13 17 25 38 55 68 76 83 95 103 108 113 116 118 122 125 126
342 343 342 346 347 345 347 355 1 0 353 353 350 334 355 342 341 350 336 336 343 345 345 352 353 357 5 13 14 23 39 57 73 83 92 100 106 110 114 116 119 120 121 122
341 351 349 353 357 350 344 350 3 2 9 8 358 356 343 339 346 342 335 339 342 350 353 351 352 355 359 6 14 24 36 48 67 86 98 105 110 113 114 116 116 118 116 116
343 348 350 352 355 352 347 344 350 351 354 358 5 3 355 352 355 355 346 345 343 347 358 356 359 357 355 1 14 20 34 50 66 80 99 110 115 116 116 116 116 114 114 116
339 330 330 337 346 351 348 342 351 346 351 346 0 2 0 343 340 345 349 1 9 12 0 2 358 355 0 2 12 22 39 51 71 87 99 107 111 117 122 124 125 127 129 132
332 304 326 341 334 335 343 341 339 351 0 358 2 1 0 5 354 352 354 1 12 6 17 15 5 357 357 4 14 23 34 54 73 88 103 113 117 125 129 136 142 144 145 146
343 349 340 320 316 344 349 348 336 344 340 344 359 1 1 358 0 8 7 354 340 347 358 355 358 358 358 5 8 13 21 26 40 63 100 111 120 126 128 132 133 134 135 136
269 285 330 324 338 348 355 353 346 352 349 348 357 0 352 355 357 345 348 354 357 8 5 13 22 18 12 16 19 25 34 42 50 66 84 107 119 121 119 124 131 135 139 142
207 287 329 328 325 337 351 3 337 346 0 338 348 354 349 346 350 351 353 359 13 15 6 5 12 22 20 13 16 26 36 46 56 54 62 74 91 107 120 129 135 137 140 146
Height
1482 1477 1472 1467 1463 1458 1455 1449 1453 1436 1438 1442 1436 1432 1434 1438 1432 1426 1426 1427 1425 1420 1421 1419 1417 1418 1417 1415 1412 1407 1404 1405 1404 1402 1400 1399 1398 1396 1393 1392 1392 1393 1394 1397
1482 1470 1463 1463 1469 1463 1461 1456 1445 1442 1447 1449 1443 1437 1436 1438 1434 1432 1438 1435 1426 1425 1422 1418 1418 1416 1413 1411 1406 1401 1399 1400 1399 1397 1395 1393 1392 1389 1386 1385 1385 1386 1386 1386
1473 1466 1465 1468 1476 1469 1467 1464 1459 1455 1460 1455 1449 1445 1445 1441 1442 1443 1441 1440 1436 1430 1425 1422 1419 1418 1414 1406 1401 1400 1397 1395 1393 1391 1389 1387 1385 1383 1380 1378 1378 1377 1378 1378
1475 1468 1473 1478 1474 1470 1469 1468 1468 1464 1461 1458 1454 1450 1446 1445 1443 1442 1440 1437 1433 1430 1425 1419 1416 1413 1407 1401 1399 1398 1395 1391 1389 1386 1384 1381 1379 1376 1375 1372 1371 1371 1370 1373
1484 1472 1465 1467 1472 1475 1474 1470 1473 1469 1461 1454 1449 1446 1449 1449 1447 1445 1440 1436 1432 1427 1420 1416 1411 1406 1403 1402 1400 1396 1391 1388 1385 1383 1379 1375 1374 1372 1370 1367 1365 1365 1363 1366
1477 1475 1477 1477 1472 1470 1467 1469 1474 1469 1463 1457 1453 1449 1452 1452 1449 1447 1443 1437 1432 1427 1422 1416 1411 1408 1405 1401 1397 1391 1387 1384 1381 1379 1375 1371 1370 1367 1364 1363 1360 1359 1359 1358
1490 1486 1480 1481 1475 1466 1471 1485 1476 1472 1469 1465 1461 1461 1457 1452 1448 1445 1441 1437 1433 1427 1422 1418 1413 1408 1401 1397 1393 1388 1385 1381 1377 1375 1372 1367 1364 1362 1359 1356 1356 1354 1355 1353
1495 1509 1496 1483 1476 1478 1485 1480 1478 1473 1470 1467 1465 1462 1458 1454 1450 1444 1439 1435 1431 1424 1421 1417 1412 1404 1400 1396 1391 1387 1383 1380 1377 1375 1367 1362 1359 1357 1355 1352 1351 1351 1351 1352
1491 1488 1489 1487 1486 1484 1482 1480 1478 1475 1471 1469 1465 1462 1459 1453 1448 1444 1440 1433 1428 1422 1418 1416 1411 1405 1400 1398 1390 1384 1380 1377 1374 1367 1360 1356 1353 1351 1350 1348 1348 1347 1348 1347
1489 1489 1487 1487 1486 1484 1482 1479 1477 1475 1472 1469 1466 1462 1458 1454 1450 1442 1436 1430 1427 1423 1419 1414 1410 1407 1404 1403 1393 1388 1382 1376 1368 1361 1356 1352 1349 1347 1345 1345 1343 1343 1343 1344
1487 1486 1486 1484 1485 1483 1481 1479 1477 1475 1472 1469 1466 1463 1459 1454 1450 1446 1442 1438 1435 1431 1427 1423 1419 1413 1403 1393 1387 1381 1376 1370 1365 1359 1354 1349 1346 1343 1342 1341 1340 1339 1340 1340
1490 1486 1486 1485 1484 1482 1481 1478 1476 1474 1472 1469 1466 1463 1460 1457 1453 1449 1445 1441 1437 1433 1427 1420 1413 1405 1399 1393 1387 1380 1375 1369 1363 1357 1353 1350 1347 1345 1342 1337 1335 1336 1337 1338
1484 1484 1484 1483 1483 1481 1480 1478 1476 1474 1471 1469 1466 1463 1460 1457 1454 1450 1446 1441 1436 1430 1424 1418 1412 1406 1400 1394 1388 1382 1375 1367 1361 1357 1354 1352 1349 1347 1343 1339 1335 1334 1335 1336
1482 1482 1483 1482 1482 1480 1479 1478 1475 1473 1470 1467 1464 1461 1459 1456 1452 1448 1443 1439 1434 1429 1423 1417 1411 1405 1399 1394 1387 1381 1375 1369 1365 1361 1358 1355 1352 1350 1348 1345 1342 1342 1340 1338
1481 1481 1481 1482 1480 1478 1477 1476 1473 1470 1467 1464 1462 1459 1455 1452 1449 1445 1441 1437 1433 1428 1422 1416 1410 1404 1399 1393 1387 1382 1376 1372 1369 1366 1362 1360 1357 1355 1353 1352 1350 1352 1352 1351
1482 1481 1481 1480 1479 1478 1476 1474 1471 1468 1465 1462 1459 1456 1454 1450 1447 1443 1439 1435 1430 1425 1421 1415 1410 1405 1400 1395 1390 1385 1380 1377 1373 1370 1368 1365 1363 1361 1360 1358 1357 1357 1356 1356
1481 1482 1482 1481 1479 1477 1475 1472 1470 1466 1463 1459 1456 1453 1451 1447 1444 1441 1437 1434 1430 1426 1422 1417 1412 1408 1403 1398 1393 1389 1385 1381 1378 1376 1374 1372 1370 1369 1368 1368 1368 1367 1367 1367
1481 1481 1481 1480 1478 1476 1473 1471 1468 1465 1461 1457 1454 1451 1448 1445 1441 1438 1436 1433 1430 1427 1423 1419 1415 1411 1406 1402 1398 1394 1390 1386 1384 1382 1380 1379 1377 1376 1375 1375 1375 1374 1373 1373
1481 1481 1480 1479 1476 1474 1472 1470 1467 1463 1459 1456 1452 1449 1446 1444 1442 1438 1435 1433 1430 1426 1423 1420 1417 1413 1409 1406 1402 1399 1395 1392 1389 1388 1386 1385 1383 1382 1382 1382 1382 1381 1380 1381
1480 1479 1478 1477 1475 1473 1471 1469 1466 1462 1458 1455 1452 1449 1447 1444 1442 1439 1436 1433 1430 1427 1424 1421 1419 1415 1412 1409 1406 1403 1400 1397 1395 1394 1393 1391 1391 1390 1390 1390 1390 1389 1389 1390
1478 1478 1476 1474 1472 1471 1469 1467 1465 1462 1459 1456 1452 1449 1447 1444 1442 1439 1436 1433 1430 1427 1424 1422 1420 1417 1415 1412 1410 1407 1405 1402 1401 1400 1399 1398 1397 1397 1397 1398 1397 1398 1397 1399
1477 1476 1474 1473 1472 1470 1468 1466 1464 1462 1459 1456 1453 1450 1447 1444 1442 1439 1436 1433 1429 1427 1425 1423 1421 1419 1417 1415 1413 1411 1409 1407 1405 1404 1404 1403 1403 1403 1403 1403 1403 1403 1403 1406
1475 1474 1473 1473 1471 1469 1467 1465 1463 1461 1458 1455 1453 1450 1447 1444 1442 1439 1437 1434 1430 1427 1426 1424 1422 1421 1419 1417 1415 1414 1413 1411 1410 1409 1408 1408 1408 1408 1408 1408 1408 1410 1412 1413
1474 1474 1473 1471 1470 1469 1466 1464 1462 1459 1457 1455 1453 1450 1448 1445 1443 1439 1438 1435 1432 1430 1427 1426 1424 1423 1421 1420 1418 1416 1416 1415 1414 1413 1413 1413 1413 1413 1413 1414 1415 1416 1417 1418
1474 1473 1471 1471 1470 1468 1466 1462 1460 1459 1457 1455 1453 1450 1448 1446 1444 1441 1438 1436 1434 1431 1429 1427 1426 1424 1423 1422 1421 1419 1418 1417 1417 1417 1417 1417 1417 1417 1417 1418 1419 1419 1420 1421
1473 1472 1472 1470 1468 1466 1464 1461 1460 1458 1456 1455 1453 1451 1449 1447 1445 1443 1440 1437 1435 1433 1431 1429 1427 1426 1425 1424 1423 1422 1421 1421 1420 1420 1420 1420 1420 1420 1421 1422 1422 1423 1424 1426
1472 1472 1471 1469 1467 1465 1463 1462 1460 1459 1457 1456 1454 1451 1449 1447 1445 1444 1442 1439 1437 1434 1433 1431 1430 1428 1428 1427 1426 1425 1424 1424 1423 1423 1423 1423 1423 1423 1424 1425 1425 1426 1427 1429